Satellite-Ground Cal/Val Region Overpasses Predictions

Prediction of Satellite NPP Overpassing Cal/Val Region: PacNW

Region Location: (Latitude: 10.00, Longitude: 139.50) to (Latitude: 22.70, Longitude: 165.60).

Table of predicted overpasses for the next 14.0 days since TLE Epoch: 9/11/2020
Interval Starting Time Starting Location Ending Time Ending Location
1 09/12/2020 02:10:27 ( 19.52, 165.59) 09/12/2020 02:11:21 ( 22.69, 164.81)
2 09/12/2020 03:49:15 ( 10.01, 142.45) 09/12/2020 03:52:46 ( 22.40, 139.51)
3 09/12/2020 14:39:39 ( 22.66, 165.06) 09/12/2020 14:43:14 ( 10.04, 162.06)
4 09/12/2020 16:21:09 ( 22.65, 139.69) 09/12/2020 16:21:21 ( 21.95, 139.51)
5 09/13/2020 03:30:13 ( 10.02, 147.21) 09/13/2020 03:33:49 ( 22.70, 144.19)
6 09/13/2020 16:02:07 ( 22.65, 144.44) 09/13/2020 16:05:42 ( 10.03, 141.44)
7 09/14/2020 03:11:12 ( 10.02, 151.97) 09/14/2020 03:14:47 ( 22.64, 148.96)
8 09/14/2020 15:43:06 ( 22.64, 149.20) 09/14/2020 15:46:41 ( 10.02, 146.20)
9 09/15/2020 02:52:10 ( 10.03, 156.72) 09/15/2020 02:55:45 ( 22.65, 153.72)
10 09/15/2020 15:24:03 ( 22.70, 153.97) 09/15/2020 15:27:39 ( 10.02, 150.95)
11 09/16/2020 02:33:09 ( 10.03, 161.48) 09/16/2020 02:36:44 ( 22.66, 158.47)
12 09/16/2020 15:05:02 ( 22.69, 158.73) 09/16/2020 15:08:38 ( 10.01, 155.71)
13 09/17/2020 02:14:54 ( 12.80, 165.60) 09/17/2020 02:17:42 ( 22.66, 163.23)
14 09/17/2020 03:55:37 ( 10.05, 140.86) 09/17/2020 03:57:16 ( 15.86, 139.51)
15 09/17/2020 14:46:00 ( 22.69, 163.48) 09/17/2020 14:49:36 ( 10.01, 160.46)
16 09/18/2020 03:36:36 ( 10.05, 145.62) 09/18/2020 03:40:11 ( 22.68, 142.61)
17 09/18/2020 14:30:07 ( 11.65, 165.60) 09/18/2020 14:30:35 ( 10.00, 165.22)
18 09/18/2020 16:08:29 ( 22.67, 142.86) 09/18/2020 16:12:04 ( 10.06, 139.86)
19 09/19/2020 03:17:33 ( 10.00, 150.39) 09/19/2020 03:21:09 ( 22.68, 147.37)
20 09/19/2020 15:49:27 ( 22.67, 147.62) 09/19/2020 15:53:02 ( 10.05, 144.61)
21 09/20/2020 02:58:32 ( 10.01, 155.14) 09/20/2020 03:02:08 ( 22.69, 152.12)
22 09/20/2020 15:30:26 ( 22.66, 152.37) 09/20/2020 15:34:01 ( 10.04, 149.37)
23 09/21/2020 02:39:31 ( 10.02, 159.90) 09/21/2020 02:43:07 ( 22.70, 156.88)
24 09/21/2020 15:11:24 ( 22.65, 157.13) 09/21/2020 15:14:59 ( 10.04, 154.13)
25 09/22/2020 02:20:29 ( 10.03, 164.65) 09/22/2020 02:24:04 ( 22.65, 161.65)
26 09/22/2020 14:52:23 ( 22.65, 161.89) 09/22/2020 14:55:58 ( 10.03, 158.88)
27 09/23/2020 03:42:58 ( 10.04, 144.03) 09/23/2020 03:46:33 ( 22.66, 141.03)
28 09/23/2020 14:34:34 ( 18.36, 165.59) 09/23/2020 14:36:56 ( 10.02, 163.64)
29 09/23/2020 16:14:50 ( 22.69, 141.28) 09/23/2020 16:16:55 ( 15.36, 139.50)
30 09/24/2020 03:23:56 ( 10.05, 148.79) 09/24/2020 03:27:31 ( 22.67, 145.78)
31 09/24/2020 15:55:49 ( 22.68, 146.04) 09/24/2020 15:59:25 ( 10.01, 143.02)
32 09/25/2020 03:04:55 ( 10.06, 153.54) 09/25/2020 03:08:30 ( 22.68, 150.54)
